Theta_e
297 297 297 297 297 297 298 298 298 299 300 301 301 302 306 311 313 312 314 315 313 316 317 316 314 313 313 312 311 312 313 312 312 312 312 313 313 313 312 312 312 312 313 313 313 314 315 314 313 313 314 314 313 313 313 312 311 313 317 318 316 318 317 315 316 316 315 315 313 312 312 311 313 317 316 314 317 321 321 320 322 321 318 320 321 320 326
297 297 297 297 297 297 297 298 298 300 302 302 302 303 306 309 310 312 315 314 313 315 317 317 316 315 313 312 312 312 312 311 312 311 312 313 313 313 313 312 313 313 313 313 313 314 315 315 313 314 315 313 313 313 312 313 314 314 318 319 316 318 318 316 315 316 319 320 317 317 316 314 314 315 317 316 315 319 321 319 321 322 318 317 318 318 322
297 297 297 297 297 297 297 298 298 300 303 303 302 304 307 310 313 313 313 313 313 314 315 314 315 315 313 313 313 312 311 312 312 311 312 312 312 312 312 312 312 312 312 314 313 312 314 315 314 313 314 314 313 313 312 314 315 314 314 315 316 318 319 318 316 316 319 320 317 316 315 313 314 315 316 317 314 318 321 319 321 322 318 316 318 320 323
297 297 297 297 297 297 297 297 297 299 301 302 303 307 309 312 314 313 311 311 311 311 311 310 312 313 312 312 313 312 312 312 312 312 313 312 311 312 311 311 312 312 313 314 314 313 312 313 314 313 313 313 312 313 314 314 314 314 312 312 315 317 317 316 316 316 318 317 313 312 311 312 313 314 315 316 315 319 320 317 318 321 319 319 320 323 324
297 297 297 297 297 297 297 297 298 299 300 301 303 308 310 312 313 311 310 311 312 312 311 310 311 313 312 313 313 312 312 312 313 312 312 311 311 312 311 310 312 312 313 314 315 314 312 312 315 315 314 314 312 311 314 314 313 313 311 311 313 314 315 316 315 313 313 311 309 310 310 311 311 312 313 315 316 318 316 316 320 322 321 321 321 320 319
297 297 297 297 297 297 297 297 297 298 300 301 302 305 307 309 310 309 308 311 314 314 312 309 310 312 312 313 313 313 313 314 314 312 311 312 311 312 312 311 311 311 312 313 314 314 315 316 317 318 316 315 315 313 312 312 312 311 311 311 312 313 315 315 312 311 312 310 310 311 310 310 311 312 314 315 317 317 314 315 319 319 321 324 322 317 316
297 297 297 297 297 297 296 297 297 297 299 300 299 301 304 305 307 308 308 309 311 312 311 309 310 311 312 313 312 312 313 314 313 311 312 313 312 311 312 311 310 310 311 312 313 315 318 319 317 316 316 317 317 315 314 313 311 311 312 313 314 315 316 314 312 313 313 311 311 311 311 311 312 312 313 314 315 316 315 315 317 316 317 322 321 317 317
297 296 296 296 296 296 296 296 296 297 298 299 299 299 300 302 304 306 307 308 309 310 309 308 311 312 312 313 311 310 312 313 311 310 311 314 313 311 311 309 309 310 309 310 311 312 314 316 315 314 315 317 316 315 315 315 313 312 313 314 314 315 316 314 314 316 316 313 312 311 311 312 312 312 314 316 316 316 316 314 316 315 316 319 320 319 319
297 297 296 296 296 296 296 296 296 296 297 299 300 299 297 300 304 305 306 309 309 309 309 308 310 311 311 311 311 309 309 310 309 310 309 310 311 309 309 310 310 309 308 308 308 308 310 312 311 311 311 312 312 312 313 313 313 313 314 315 314 315 315 314 313 316 316 313 311 312 312 312 313 314 316 317 315 315 315 313 314 314 314 317 317 317 318
297 296 296 296 296 295 295 295 295 296 297 298 301 300 296 298 304 305 306 309 309 308 308 308 309 310 309 309 308 308 308 307 308 310 310 308 309 308 308 309 310 308 307 307 307 306 306 308 308 308 309 308 308 309 310 310 311 311 312 315 315 314 315 315 314 314 314 311 311 314 313 312 316 318 315 313 313 314 315 315 315 314 312 314 313 311 313
297 297 296 296 295 295 295 295 295 296 298 300 301 301 297 296 303 306 305 309 310 307 307 307 306 308 307 306 307 307 307 307 307 309 309 308 308 308 307 307 310 309 306 305 305 305 306 307 307 308 308 308 308 308 308 308 309 309 310 313 314 312 313 315 314 313 312 312 313 315 312 312 317 317 313 313 315 315 315 314 313 313 312 312 310 308 309
297 297 296 296 296 295 295 295 295 296 300 300 301 302 298 295 301 305 305 308 309 305 305 305 304 305 305 305 306 306 306 307 307 306 308 308 307 307 306 306 308 307 304 303 304 305 306 307 307 307 307 307 308 308 307 307 308 307 308 311 313 313 313 313 312 312 313 312 313 313 311 312 314 312 311 313 314 314 315 312 309 310 311 310 308 307 307
297 296 296 296 296 295 295 295 295 297 299 300 299 301 300 295 298 304 305 307 307 304 303 304 302 303 305 305 306 306 306 307 306 305 307 307 306 307 306 305 305 304 303 303 303 304 306 307 307 308 308 307 307 307 307 307 308 307 307 308 311 314 314 313 312 314 315 312 311 312 311 311 312 311 310 312 313 314 317 314 307 307 309 308 307 307 306
296 296 296 296 296 295 295 295 295 297 299 300 298 299 299 295 296 302 304 306 306 303 302 303 302 303 306 305 304 305 305 306 306 306 307 306 305 306 305 304 303 303 303 303 303 304 307 308 308 309 309 307 307 309 309 308 308 309 308 307 308 310 313 314 313 315 315 312 311 313 311 309 313 313 310 310 311 312 315 313 307 306 306 306 307 307 306
296 296 296 296 296 295 294 294 296 297 299 300 299 298 298 296 295 300 304 305 306 304 302 302 303 303 304 304 303 304 306 306 306 305 306 305 305 305 304 303 302 303 303 303 304 305 307 307 307 308 309 308 308 310 309 307 307 308 308 308 309 308 311 313 313 314 314 311 310 310 308 308 311 312 309 308 308 308 310 312 308 305 305 305 305 306 305
296 295 296 296 296 295 294 294 296 298 299 300 299 297 297 296 296 300 304 305 306 304 301 300 301 302 302 302 302 303 305 305 305 306 306 306 305 303 303 302 302 303 303 303 304 305 306 307 306 307 308 307 307 307 307 306 307 307 307 308 310 310 311 313 313 312 311 310 309 308 308 308 309 309 307 306 306 306 309 311 308 305 304 303 304 304 303
295 295 295 296 296 296 295 294 296 298 299 300 299 298 297 297 297 301 304 304 304 302 300 300 301 300 300 302 303 303 303 303 304 305 306 305 303 302 303 303 302 303 303 304 305 306 306 307 306 307 307 306 305 307 307 307 307 308 309 310 310 311 313 313 311 310 310 310 309 308 308 308 307 306 305 305 304 306 310 310 306 303 303 303 303 303 303
295 295 295 296 296 296 295 294 295 297 299 300 300 299 298 297 298 301 303 303 302 300 299 299 300 300 300 302 303 303 302 302 303 304 305 304 302 302 303 302 302 303 302 303 305 306 306 307 306 306 307 306 305 307 307 306 307 307 307 309 310 311 312 311 310 309 309 310 309 307 307 306 305 304 304 303 304 308 308 306 304 302 302 302 302 302 302
295 295 295 295 296 296 296 295 294 295 297 299 300 300 299 297 298 300 300 301 302 300 298 298 299 299 300 301 300 300 301 302 302 304 305 305 302 302 303 302 302 302 302 303 305 305 305 306 305 304 306 307 306 306 305 305 306 305 305 307 309 310 311 310 309 309 309 309 308 307 306 305 303 303 303 303 306 308 306 303 302 302 302 301 301 302 301
295 295 295 295 296 296 295 295 294 294 295 298 300 301 300 299 298 299 299 300 300 300 298 298 299 299 299 300 299 299 300 300 301 302 303 303 302 302 304 305 303 302 302 303 304 304 304 305 304 303 305 305 305 306 306 305 305 303 304 306 305 306 310 310 307 307 308 307 307 307 307 305 302 303 303 303 306 306 303 301 301 301 301 300 300 300 300
295 295 295 295 295 296 295 294 294 293 294 297 298 300 300 299 298 298 299 299 300 300 299 299 299 299 299 299 298 299 299 300 300 300 301 301 301 302 304 303 301 301 301 302 303 303 302 303 303 302 303 303 304 304 304 305 305 304 304 305 304 304 306 306 305 306 307 306 306 307 306 303 301 302 303 302 303 302 301 300 300 300 299 299 299 299 299
295 295 295 295 295 295 295 294 293 294 295 297 298 299 298 298 298 299 299 300 300 300 300 300 300 299 298 298 298 298 298 299 299 299 300 301 301 301 302 301 300 301 301 301 302 303 302 301 302 302 302 302 303 303 303 304 305 304 304 305 304 302 303 303 303 304 305 303 305 305 303 300 300 300 301 300 300 300 299 299 299 299 299 298 299 299 299
295 295 295 295 295 295 295 293 293 293 294 296 298 299 298 298 297 298 299 300 300 300 300 300 300 299 298 297 297 298 298 298 298 298 299 300 300 300 300 300 300 300 301 300 301 301 301 300 300 301 301 302 302 303 304 304 303 301 302 303 302 300 300 301 302 303 304 302 301 300 299 299 299 299 299 299 299 299 299 299 298 298 298 298 298 298 298
295 295 295 295 295 295 294 293 293 293 294 296 297 298 299 298 297 297 299 299 299 300 300 299 298 298 298 297 297 298 297 297 298 298 298 298 299 300 300 299 299 299 300 300 299 300 300 300 300 301 301 301 302 303 303 303 302 301 302 303 301 299 299 300 301 302 304 302 299 298 298 299 299 299 299 299 298 298 298 298 298 298 298 298 299 298 298
295 295 295 295 295 295 294 293 293 293 294 296 298 298 299 298 297 297 298 299 299 300 301 299 298 297 298 297 298 298 297 297 298 298 297 298 298 299 299 299 299 299 299 299 300 300 300 300 301 301 300 300 301 302 301 301 301 301 302 303 301 300 300 300 300 300 301 301 298 297 298 298 298 298 299 298 298 298 298 298 298 298 299 299 299 299 299
295 295 295 295 295 295 294 293 294 295 296 297 298 299 299 299 299 297 296 297 300 300 300 300 299 298 298 298 297 297 297 297 297 297 298 298 298 298 298 299 299 300 299 299 300 299 299 300 300 301 301 300 300 300 301 301 301 301 301 301 300 300 300 300 299 301 301 300 298 298 299 299 298 298 298 298 298 298 298 298 299 299 299 299 299 299 299
295 295 295 295 295 295 294 293 295 297 298 297 298 299 299 299 300 298 295 296 300 301 300 300 300 299 298 298 297 297 297 297 297 297 298 298 298 298 298 298 299 299 299 299 299 299 299 300 300 301 300 299 299 300 300 299 299 300 301 301 300 300 300 299 300 301 301 299 298 298 299 299 299 298 299 298 298 299 299 299 299 299 299 299 299 298 298
296 295 295 295 295 295 294 293 295 297 299 298 299 300 299 299 300 299 295 295 298 300 299 299 299 299 299 298 297 297 297 297 297 297 297 297 298 298 298 298 298 299 299 299 299 299 299 300 300 299 299 299 300 301 300 299 299 300 300 300 300 299 299 299 299 299 299 298 298 298 298 299 298 298 299 298 298 299 298 298 298 298 298 298 298 298 298
296 295 295 295 295 295 294 294 294 296 298 298 299 300 300 300 300 299 295 295 298 299 299 299 300 299 299 298 297 297 297 297 297 297 297 297 297 297 297 297 297 298 298 298 298 299 299 298 298 299 299 299 300 300 299 298 299 299 299 299 298 298 298 298 298 298 298 298 298 298 298 298 298 298 298 298 298 298 298 297 298 298 298 298 298 297 297
295 295 295 295 295 295 294 294 294 295 297 297 298 300 301 301 299 296 293 295 298 299 299 300 300 299 298 298 297 297 297 297 297 297 297 297 297 297 297 297 297 297 297 297 297 297 298 298 297 298 299 298 298 299 299 298 298 298 297 297 297 297 297 297 298 298 298 298 298 298 298 298 298 298 298 298 298 298 297 297 297 297 298 297 297 297 297
296 295 295 295 296 295 295 294 295 296 297 297 297 298 299 298 296 293 293 294 297 298 299 300 300 300 298 298 298 297 296 296 297 297 297 297 297 298 297 297 297 297 297 297 296 296 296 297 297 298 299 298 298 299 298 298 298 298 297 297 297 297 297 297 297 298 298 298 298 298 297 298 298 298 298 298 298 298 298 297 297 297 297 297 296 296 296
296 295 295 296 297 296 295 295 296 297 298 298 297 297 297 296 295 293 293 295 296 298 299 300 299 299 298 298 298 297 297 297 298 298 298 298 298 298 297 296 297 297 297 297 296 296 296 296 297 297 298 297 298 298 298 298 299 299 297 297 297 297 297 297 298 298 298 298 298 297 297 298 298 297 298 298 297 297 297 297 297 296 296 295 295 294 294
295 295 296 297 298 297 297 296 297 298 299 299 299 298 299 298 296 293 293 295 295 297 299 299 298 298 298 298 298 298 297 298 298 298 298 298 297 297 297 296 297 297 297 297 297 296 296 297 297 297 298 298 298 298 298 298 299 298 297 296 297 297 297 298 298 298 298 298 298 297 297 297 298 297 298 297 297 297 296 296 295 295 294 294 293 293 293
295 295 296 297 298 298 298 297 298 299 299 300 300 300 299 298 296 294 293 294 296 298 299 298 298 298 299 299 299 298 297 298 298 298 298 298 297 297 297 296 296 297 297 297 297 296 297 297 296 298 298 298 298 298 298 298 298 297 296 296 297 297 297 298 298 298 298 298 298 298 297 297 297 297 297 297 296 296 295 294 294 293 293 293 292 292 292
295 296 297 298 298 298 298 298 299 299 299 300 300 299 297 296 294 293 294 294 296 299 300 299 298 299 300 300 300 299 297 297 298 298 298 297 297 297 297 296 297 297 297 297 296 297 297 297 296 298 299 298 297 297 297 297 297 297 297 297 297 297 297 297 298 298 298 297 298 298 297 297 297 297 297 296 296 295 294 293 293 293 292 292 292 292 291
295 296 298 298 298 299 299 300 300 299 299 300 300 297 295 294 293 293 294 295 296 299 300 299 299 300 300 300 299 298 298 298 298 297 297 298 298 297 296 296 297 297 296 297 297 297 297 297 297 298 298 297 296 297 297 297 297 297 297 297 297 297 297 297 297 297 297 297 297 297 297 297 297 296 296 296 295 294 293 293 293 292 292 292 291 291 291
295 297 298 299 299 300 300 300 300 299 299 299 298 296 295 295 295 295 297 296 297 298 298 298 299 299 299 299 298 298 298 299 298 297 298 298 297 297 296 297 297 297 296 297 298 297 297 297 297 298 298 297 297 297 297 296 296 296 296 296 297 297 297 297 297 297 297 297 297 297 297 297 296 295 295 295 294 293 293 293 292 292 291 291 291 291 291
296 297 298 299 300 301 301 300 300 299 298 297 296 296 297 297 297 298 299 299 299 299 299 298 299 299 298 298 299 298 298 298 298 298 298 298 297 297 297 297 297 297 297 298 297 296 297 297 297 297 298 297 296 296 296 296 296 296 296 296 296 296 297 298 298 297 297 297 297 296 296 296 296 295 295 295 294 294 293 292 292 291 291 291 291 291 291
298 298 299 299 300 300 299 299 299 298 296 297 298 298 299 298 298 299 300 299 299 299 299 298 299 298 298 299 299 298 298 298 298 299 299 297 297 298 297 296 296 296 297 297 296 295 297 298 297 297 297 297 296 296 296 296 296 296 296 296 296 296 297 298 297 297 297 297 297 296 296 296 295 295 295 294 294 293 293 292 292 291 291 291 290 290 290
298 298 298 298 298 299 298 298 298 297 297 298 299 299 298 298 298 298 299 298 298 299 298 298 298 298 298 298 299 298 298 298 298 299 298 297 297 297 296 296 296 296 296 296 296 295 296 297 296 296 297 296 296 296 296 295 295 295 295 295 296 296 297 298 297 297 297 296 296 296 295 295 295 295 295 294 294 293 292 292 291 290 290 289 289 289 289
295 295 296 296 297 297 297 297 298 298 298 298 298 298 298 298 297 298 298 298 298 298 298 298 298 298 298 298 298 298 298 298 298 297 297 297 297 296 296 296 296 295 295 296 296 296 296 296 296 296 297 296 296 295 295 295 294 294 294 295 296 297 297 297 297 297 296 296 295 295 295 295 295 295 294 294 293 291 291 290 289 289 289 288 288 289 289
294 295 296 297 296 297 297 298 298 298 298 298 297 297 298 297 297 298 298 298 299 299 298 298 298 298 298 298 298 297 298 298 297 296 297 297 296 296 296 296 296 295 295 296 296 296 296 295 296 297 297 296 295 295 295 294 293 292 293 294 296 297 297 297 297 296 296 295 295 295 295 295 295 294 294 294 292 291 290 290 289 289 289 289 289 290 290
295 296 297 298 297 297 297 298 298 298 298 297 297 297 297 297 298 298 298 298 298 298 298 298 298 298 298 298 297 297 297 297 297 296 297 297 296 296 296 296 295 295 295 296 296 296 296 295 296 298 297 295 295 295 294 293 292 293 293 295 297 297 297 297 296 296 295 295 295 295 295 295 294 294 294 294 293 293 292 292 291 290 290 290 290 291 291
296 297 297 298 298 297 297 297 298 298 298 297 297 297 298 298 299 299 299 299 299 298 298 298 298 298 298 298 297 297 297 297 297 297 297 297 296 296 295 296 296 296 296 296 296 296 296 297 297 298 296 295 295 294 293 292 293 294 295 296 297 297 297 297 296 295 295 295 295 295 295 294 294 294 294 293 293 293 293 292 292 291 291 291 290 290 291
297 297 297 298 298 297 296 296 297 298 298 298 298 299 299 300 301 301 300 299 299 299 299 298 298 298 298 298 297 297 297 296 296 296 296 296 296 296 295 296 297 296 295 296 296 295 296 297 297 296 295 294 294 294 293 292 293 294 295 296 296 297 297 297 296 296 295 295 295 295 294 293 293 292 292 292 292 292 292 292 291 291 291 290 289 289 290
296 297 297 297 297 297 296 296 297 298 298 298 299 299 299 300 300 300 299 299 298 298 298 298 298 297 298 297 297 297 297 296 296 297 296 296 296 296 296 296 296 295 295 295 295 295 297 298 296 295 294 294 293 293 293 292 293 294 295 296 296 296 297 296 296 296 296 295 295 295 294 294 292 292 292 292 292 292 292 291 290 290 290 289 288 287 288
296 296 296 296 297 297 297 297 297 298 298 298 298 298 298 299 299 299 299 298 298 298 298 297 297 297 297 297 297 297 297 297 297 297 297 296 296 296 296 296 295 295 295 295 295 295 297 297 296 294 294 294 293 293 293 293 293 294 295 296 296 296 297 296 296 296 296 295 295 295 295 294 293 292 292 291 292 292 292 291 290 290 289 288 287 286 287
295 295 296 296 297 298 298 298 298 297 297 297 298 298 299 299 299 299 299 298 298 298 298 297 297 297 297 297 297 297 297 297 297 297 297 296 296 296 296 295 295 295 295 295 296 297 297 296 295 295 294 294 293 293 293 293 293 294 295 295 296 297 297 296 296 296 296 295 295 295 294 294 294 293 293 292 292 292 291 291 290 290 289 288 287 287 286
295 295 295 295 296 297 297 297 297 297 297 298 298 298 299 299 299 299 299 298 298 298 297 297 297 297 297 297 297 297 297 297 297 296 297 296 296 295 295 295 295 295 295 297 297 297 296 296 296 295 294 293 293 293 293 293 293 293 294 295 296 296 296 296 296 296 295 295 295 295 295 295 295 295 294 293 292 291 291 290 290 290 289 289 288 287 286
295 294 295 295 296 296 297 297 297 298 298 298 298 298 298 298 298 298 298 298 298 297 297 297 296 296 296 296 296 296 297 297 296 296 296 296 296 296 295 295 295 296 297 297 297 296 296 296 295 294 294 294 294 293 293 294 293 293 293 295 296 296 296 296 296 296 295 295 295 295 295 295 295 295 294 293 292 291 291 291 291 291 290 290 289 288 288
294 294 295 295 296 296 296 297 297 297 297 297 297 298 298 298 298 298 298 298 298 297 297 297 297 297 296 296 296 296 296 296 296 296 296 296 296 296 296 296 297 297 297 296 296 296 296 296 295 295 294 294 294 294 294 294 294 293 294 294 295 296 296 296 296 296 296 295 295 296 296 295 294 294 294 294 292 292 292 292 292 291 290 290 289 290 290
294 295 295 295 295 296 296 296 296 297 297 297 297 297 298 298 298 298 297 297 297 297 297 297 297 297 297 297 296 296 296 296 296 296 296 296 296 296 297 297 297 297 296 296 296 296 296 296 295 295 295 294 294 294 294 294 294 294 294 294 295 296 296 296 296 296 296 295 295 295 295 295 294 294 295 294 293 292 292 293 292 291 290 290 290 291 291
Wind_Speed
27 28 28 28 28 28 27 26 24 25 27 26 24 21 14 7 9 9 5 9 11 8 3 4 4 3 6 11 14 15 12 10 11 12 8 3 3 4 3 4 5 4 2 2 3 3 2 3 3 1 2 6 7 7 11 14 11 5 3 2 3 3 3 2 2 4 4 8 10 9 10 8 4 0 3 3 2 3 5 4 3 2 2 3 3 0 4
27 27 28 28 28 28 28 26 22 20 23 26 25 21 16 14 14 10 6 9 9 5 2 3 4 4 8 9 11 14 13 10 11 9 4 3 4 3 3 5 4 3 3 3 4 4 2 2 5 3 2 5 9 9 9 12 8 3 3 2 0 1 1 2 1 3 5 6 7 7 7 6 3 3 4 4 2 4 3 1 2 1 1 3 4 1 3
27 27 27 28 28 28 28 27 23 19 19 22 23 19 16 13 10 8 7 8 10 8 6 5 4 4 6 6 5 8 10 11 12 9 5 4 4 4 5 6 6 5 5 4 5 5 1 1 4 4 2 2 7 11 12 13 8 4 8 8 3 1 1 3 4 2 1 1 0 2 5 5 3 5 5 5 4 4 3 2 3 1 3 3 4 2 4
27 27 27 27 28 28 28 27 24 20 19 20 19 16 12 7 4 7 9 4 5 9 10 7 5 4 5 5 5 5 5 8 12 10 5 3 9 9 8 7 6 5 6 5 5 6 5 3 4 4 4 2 3 9 15 16 12 8 10 10 5 2 1 2 3 5 4 4 3 3 4 4 4 6 7 6 5 4 5 3 1 3 1 3 1 5 3
27 27 27 27 28 28 28 28 25 23 21 19 15 13 11 6 1 5 8 7 6 6 8 8 6 5 4 2 3 5 5 5 6 6 3 8 12 9 8 7 5 5 7 4 2 4 6 6 6 5 6 6 3 9 16 15 12 9 8 7 5 3 1 1 2 3 3 5 7 8 7 6 6 5 6 7 6 6 5 1 3 3 4 2 3 4 4
27 27 27 27 28 28 28 28 26 25 22 19 14 13 12 7 4 8 9 5 4 6 8 9 7 7 6 3 3 7 8 6 5 3 3 6 11 7 6 9 9 10 10 5 3 3 3 5 6 5 5 6 6 6 9 8 9 8 5 4 5 4 1 3 2 4 6 5 6 8 7 7 6 5 5 5 6 7 5 2 4 2 4 5 5 2 0
26 27 27 27 28 28 29 28 27 26 21 17 20 19 15 10 6 11 15 10 7 10 12 10 7 6 7 5 5 6 5 5 6 5 4 4 8 8 5 9 13 13 12 9 5 6 4 4 5 5 5 5 4 4 4 3 4 5 3 2 3 4 2 2 1 2 5 6 6 7 7 7 7 7 6 4 6 6 6 3 2 2 2 5 2 3 1
26 27 27 27 28 27 29 28 28 28 21 17 24 26 19 12 8 12 16 13 11 15 16 10 4 5 8 6 6 7 6 4 4 6 8 4 3 6 7 9 12 11 13 12 7 7 6 3 3 5 5 5 4 3 2 2 4 4 2 2 3 3 1 1 4 4 5 5 6 7 7 7 6 7 8 6 6 6 5 5 5 4 3 2 7 7 3
25 26 26 27 27 27 28 28 27 28 24 20 25 28 24 12 5 10 12 8 9 13 12 7 4 5 6 5 5 7 9 9 6 8 15 13 7 7 9 8 9 9 13 12 7 10 11 7 8 8 5 5 6 5 4 4 5 3 2 2 3 3 0 2 5 3 3 4 6 7 7 8 7 7 6 5 5 4 2 3 4 4 4 6 9 6 5
24 25 25 26 27 27 27 27 27 26 25 25 25 27 29 17 6 11 12 5 7 8 5 6 7 4 5 7 7 8 10 15 11 5 11 17 16 14 14 11 7 7 10 9 10 15 17 15 16 14 9 9 12 11 11 9 4 2 1 2 2 3 3 1 3 2 2 3 4 6 7 8 5 4 3 1 2 3 4 4 5 6 5 4 5 2 5
24 25 25 25 26 26 26 26 26 25 24 26 24 24 31 24 12 16 14 4 6 9 7 7 7 6 9 11 10 10 10 12 11 6 6 12 16 16 16 12 6 4 6 11 14 17 18 18 18 15 12 13 14 14 14 11 7 5 1 2 1 2 3 3 3 2 2 1 4 6 5 2 4 3 4 2 2 7 6 4 6 7 5 4 3 3 6
24 24 25 25 25 25 25 24 23 22 21 21 20 21 29 27 16 15 12 3 6 11 8 7 10 12 15 15 10 10 10 9 10 9 6 7 13 15 13 11 6 3 8 14 16 16 15 14 13 12 13 13 14 13 12 8 8 11 7 2 3 4 3 3 2 3 2 2 6 5 2 5 2 5 9 7 4 8 8 6 9 11 7 6 8 7 9
24 24 24 25 24 24 24 24 22 19 17 17 19 21 26 27 20 15 11 4 4 8 6 9 17 19 18 17 11 8 11 13 12 10 7 6 9 12 11 8 7 7 12 14 15 14 10 6 6 7 8 7 7 8 9 8 8 10 10 6 4 5 4 3 2 2 2 2 3 2 4 3 4 9 9 8 7 6 7 8 11 12 9 7 8 7 9
25 25 24 24 24 23 23 23 21 18 16 15 18 21 25 28 22 17 13 5 3 10 11 8 12 15 15 17 15 9 10 14 11 8 6 5 5 9 9 7 8 10 12 11 11 9 4 2 3 4 4 3 3 4 5 7 7 9 10 9 7 6 4 3 2 1 3 3 2 2 2 6 6 6 6 6 6 4 3 5 5 9 10 8 7 6 9
25 26 25 23 23 23 22 22 20 18 16 14 16 21 27 28 22 16 13 6 2 8 13 8 8 11 11 14 16 10 5 8 9 8 6 5 5 8 10 11 12 13 10 7 5 3 1 1 2 2 2 1 1 2 3 3 5 5 6 6 7 7 6 5 3 1 3 4 1 2 1 2 3 3 5 8 10 8 3 4 3 7 13 14 10 7 9
25 26 25 24 23 22 21 21 19 18 17 15 15 20 26 27 21 15 16 12 3 3 12 14 12 12 10 12 16 11 5 4 5 6 6 6 9 12 12 11 11 10 8 7 4 1 1 0 0 1 2 2 2 2 2 2 1 1 2 2 3 3 3 5 4 2 3 4 2 2 2 2 3 5 8 12 15 13 6 3 3 6 13 17 13 9 11
25 26 25 24 22 21 20 19 17 15 16 16 16 20 24 26 21 15 16 17 8 7 14 19 16 14 10 9 12 12 10 8 6 4 4 5 11 16 17 15 11 8 9 7 3 1 1 1 1 1 2 3 3 1 2 4 3 4 5 5 7 7 4 4 3 2 3 4 3 2 2 1 3 6 9 15 17 12 5 3 1 8 14 17 16 13 14
24 26 26 24 22 21 20 18 15 13 14 14 15 17 22 24 20 15 16 17 11 10 15 17 15 15 11 8 10 12 13 12 8 5 4 5 9 16 19 15 11 10 12 8 2 2 3 1 1 2 2 4 5 2 2 4 3 3 5 4 5 4 3 4 2 1 2 3 2 1 1 1 4 8 11 15 13 7 4 3 4 10 13 15 16 15 16
24 25 26 24 22 21 20 18 15 12 11 12 14 16 19 21 20 16 18 18 12 9 13 15 14 14 13 12 15 16 15 14 11 6 3 3 10 18 17 12 12 12 13 9 3 3 4 3 3 3 2 4 3 1 1 3 2 3 3 3 4 3 2 2 2 2 2 1 2 2 1 2 5 9 12 12 6 2 2 2 7 10 11 14 14 14 16
23 25 25 23 22 21 20 18 16 13 11 10 11 14 16 14 12 13 17 18 13 8 11 13 12 12 12 12 14 16 15 15 14 9 3 4 14 18 10 8 12 12 9 7 5 3 3 3 3 2 2 3 2 1 1 3 3 5 4 3 4 3 1 2 2 2 1 2 4 2 1 1 2 6 8 7 3 3 2 4 8 10 12 15 15 15 18
23 24 24 23 22 21 20 18 16 14 12 8 6 9 12 8 6 10 13 11 8 6 8 9 9 10 10 9 10 11 12 12 10 9 7 10 15 12 3 4 10 8 4 5 4 2 3 4 3 3 3 3 2 2 3 4 4 4 3 3 4 4 1 0 1 1 2 3 2 1 3 3 6 4 2 2 1 0 3 6 8 10 13 16 17 17 18
23 23 23 22 21 21 20 18 16 14 12 10 9 11 12 8 6 9 11 7 3 3 5 6 7 7 7 9 8 5 8 11 9 6 8 12 14 13 11 11 13 9 7 7 3 1 3 3 2 3 3 2 3 4 4 3 2 3 4 4 3 4 3 2 1 1 2 3 1 2 5 9 10 8 6 8 9 10 12 13 13 14 16 17 17 18 18
22 21 21 21 21 20 19 17 15 13 11 10 11 15 17 14 10 8 9 9 5 4 5 4 5 3 4 7 7 3 7 12 10 8 10 11 11 13 15 13 11 9 10 10 5 3 4 3 2 2 2 2 3 3 4 3 2 3 4 3 3 5 9 7 2 2 3 4 10 14 13 11 11 11 11 13 15 16 18 19 18 18 19 18 18 18 19
20 20 20 20 20 20 19 16 14 13 11 10 10 13 17 19 17 12 9 9 8 6 5 5 6 5 4 5 5 5 8 10 8 10 14 12 8 8 10 10 9 8 9 10 8 8 6 5 3 1 1 3 4 3 3 4 2 3 4 2 2 6 11 8 3 3 3 3 8 13 12 11 12 14 14 16 19 20 20 19 18 19 19 18 18 18 18
19 18 19 20 20 19 18 16 14 13 11 9 9 11 14 17 19 17 12 9 8 7 3 2 6 7 5 4 4 5 8 7 5 7 11 8 5 7 8 7 6 7 8 9 10 11 8 4 2 2 2 4 6 3 2 2 1 3 4 2 1 5 8 5 3 4 2 0 7 15 14 12 16 18 19 20 22 22 21 19 18 18 17 16 16 16 17
17 17 18 19 18 18 17 15 14 13 11 9 9 12 14 14 17 19 16 11 6 4 3 2 5 7 6 5 5 3 4 5 4 6 8 5 4 7 8 6 4 5 7 7 8 9 6 2 2 2 1 4 5 3 1 2 3 2 2 2 3 7 7 2 1 3 3 3 10 17 14 11 16 21 20 21 22 21 18 17 15 14 14 15 15 16 16
16 17 17 17 17 16 15 13 12 11 11 10 8 9 12 12 14 18 20 14 6 3 3 5 7 8 8 8 5 2 3 5 5 6 6 5 2 3 6 5 3 3 4 6 7 6 4 3 2 1 0 2 3 2 2 3 4 2 1 4 6 6 3 1 3 4 3 3 9 13 7 4 12 19 19 19 19 16 14 14 14 14 15 15 16 16 16
15 16 16 16 16 15 13 12 10 9 10 10 6 5 7 7 10 15 18 12 6 3 5 10 11 8 3 5 6 4 2 3 3 3 5 6 4 4 4 3 4 4 2 2 4 4 3 3 2 1 1 3 2 3 4 5 4 2 1 2 5 4 2 3 4 3 1 5 12 13 8 7 11 16 16 16 16 14 14 15 15 15 16 15 15 16 16
15 16 15 15 15 13 12 10 8 6 7 7 7 6 2 1 6 13 15 10 5 4 7 10 10 6 3 3 6 5 4 5 2 3 3 5 5 5 7 7 6 5 3 2 4 4 3 4 4 1 2 3 2 1 3 3 2 1 1 3 8 10 10 12 10 5 3 8 12 12 10 10 12 14 14 13 13 15 16 16 15 15 15 15 15 16 17
14 15 15 15 15 12 11 9 8 6 5 5 8 8 2 2 6 13 13 7 4 5 6 5 5 5 3 1 3 4 6 9 6 4 5 5 2 5 9 6 2 3 4 5 5 3 3 5 5 0 4 3 1 1 1 2 1 1 3 8 12 12 12 13 11 7 6 7 7 8 9 10 12 12 12 12 13 15 16 15 14 14 15 16 16 16 16
13 14 14 14 13 11 9 7 6 7 6 6 8 7 2 2 10 13 8 4 4 6 5 5 7 7 3 2 1 2 4 7 7 5 5 4 4 6 8 7 4 3 3 4 4 4 4 4 4 1 5 5 1 1 1 2 2 0 5 11 12 11 11 10 9 8 7 7 7 9 9 9 10 12 14 14 14 14 14 13 12 13 15 17 16 14 14
11 13 12 12 12 11 8 5 5 7 8 9 8 6 4 8 14 13 5 2 5 7 6 5 6 5 2 4 4 2 1 5 7 6 5 5 5 5 5 5 5 4 3 3 3 4 3 3 5 5 2 4 2 1 1 1 4 2 6 12 12 11 10 9 9 9 9 9 10 9 9 9 11 12 14 14 12 11 11 11 12 13 14 15 14 13 14
10 11 9 9 10 11 9 6 4 5 7 9 8 7 8 13 16 13 7 4 5 7 5 4 3 2 2 2 2 4 1 6 8 7 4 5 3 4 5 6 5 5 5 4 2 2 2 4 5 5 4 6 4 1 2 4 4 3 11 13 12 10 9 9 9 9 10 11 10 9 9 11 12 11 10 10 9 9 10 11 11 12 13 13 13 13 14
9 9 6 5 7 9 8 6 4 4 6 8 8 10 13 15 14 11 6 4 5 5 4 4 3 2 3 4 1 3 3 6 6 4 1 5 3 4 6 4 3 4 4 3 2 3 5 6 4 2 3 6 4 2 2 3 2 9 11 9 8 8 8 8 8 10 11 11 10 9 10 11 11 9 8 7 8 9 11 11 11 12 12 12 13 14 15
8 6 3 3 6 7 5 3 3 4 5 4 6 11 15 14 10 6 4 5 4 2 2 5 4 2 2 3 0 3 7 7 4 4 4 4 5 6 5 3 2 2 5 4 3 3 3 2 1 2 2 2 2 2 2 2 6 10 8 6 6 7 8 8 8 10 11 10 10 9 9 9 9 9 9 8 8 10 11 11 11 11 11 11 12 14 15
5 3 2 4 7 9 7 4 3 4 3 5 10 14 13 8 5 4 4 5 3 1 2 5 5 2 3 2 1 4 8 7 4 6 8 6 6 6 4 2 2 2 6 5 3 3 2 2 1 1 2 2 1 2 5 7 8 7 5 5 5 5 6 6 8 10 10 9 8 9 9 9 9 9 8 7 8 9 10 10 11 11 11 12 12 13 15
4 1 2 5 9 11 8 2 2 6 9 11 13 12 7 3 3 4 5 5 4 4 4 4 3 3 4 3 2 4 6 5 5 7 6 5 5 5 3 2 0 0 2 2 2 2 4 5 3 1 3 3 5 8 9 9 7 6 5 5 5 5 6 6 8 8 8 8 8 8 8 8 7 8 7 6 7 8 9 9 10 11 11 12 12 13 15
3 2 3 7 10 9 4 0 4 11 13 10 7 5 4 4 3 3 4 4 4 5 6 4 4 6 7 5 3 3 4 5 7 6 3 2 4 5 3 2 1 1 0 2 1 1 1 3 3 2 3 6 13 12 10 9 8 6 4 4 5 7 7 7 7 7 7 7 8 8 7 6 6 6 5 5 6 7 7 7 8 10 10 12 12 13 14
4 4 4 5 6 4 2 4 10 12 9 4 4 4 3 3 2 3 5 6 5 6 7 7 7 8 7 3 2 2 2 3 5 4 2 1 2 1 1 1 1 2 1 2 0 1 1 2 1 1 1 5 11 11 9 9 9 6 4 4 6 7 6 5 6 6 5 5 5 5 5 4 4 4 5 5 5 5 6 7 9 10 11 12 13 14 14
5 5 4 5 7 7 6 8 10 7 5 4 4 4 3 3 3 2 3 3 3 5 6 6 6 7 5 2 1 1 2 2 2 3 3 3 3 1 1 2 1 1 1 2 2 3 1 1 1 1 2 3 8 10 9 9 8 5 3 5 6 6 4 4 5 5 3 3 4 5 3 3 3 4 4 4 3 4 6 8 10 10 10 12 14 16 17
8 7 5 6 8 8 7 6 6 4 4 4 3 2 2 3 4 4 2 1 2 3 6 6 4 3 4 4 2 3 1 1 3 4 3 2 2 1 0 1 2 1 0 2 1 1 1 1 1 2 3 6 10 11 10 8 6 3 3 5 5 4 4 3 4 4 4 3 3 2 4 4 3 2 3 4 4 6 8 9 9 8 9 11 14 16 18
10 8 7 8 8 6 4 3 3 4 3 3 1 1 1 2 3 4 4 3 2 2 3 3 1 1 3 3 4 4 1 1 3 4 2 1 1 1 1 1 1 0 2 3 3 3 1 1 2 3 6 12 13 11 9 7 4 1 3 2 1 2 3 2 2 4 4 1 2 4 4 2 1 2 1 2 5 6 8 9 9 8 9 11 13 15 17
7 7 8 9 8 6 4 3 4 4 2 0 1 1 2 2 2 2 3 4 3 2 3 3 2 1 0 2 3 2 1 2 3 2 1 2 2 2 1 1 1 1 3 3 2 2 2 1 3 5 10 15 15 11 9 5 2 2 3 2 0 1 2 2 2 4 3 4 5 3 2 3 4 2 2 3 4 6 8 10 10 10 11 12 13 13 15
4 5 5 5 5 3 2 2 3 2 1 1 1 2 2 2 3 3 2 2 3 3 3 4 4 3 2 2 2 2 2 2 1 1 2 3 3 1 0 1 2 2 3 2 1 2 2 3 3 3 10 16 15 10 7 3 2 3 6 4 0 1 1 1 2 2 2 6 5 3 4 3 2 1 4 3 3 4 6 9 9 10 10 11 10 10 11
5 6 4 3 2 1 1 1 2 2 2 2 2 2 2 4 4 2 3 4 2 0 2 3 3 3 2 2 1 2 3 2 2 1 2 1 0 1 1 2 2 1 1 2 2 2 3 3 1 8 15 17 12 7 4 3 3 4 5 3 1 2 1 1 2 2 5 7 5 3 3 1 1 2 3 2 2 2 4 6 7 7 8 9 10 9 8
6 6 5 3 2 1 1 1 1 1 1 3 4 5 6 7 5 2 3 3 2 5 7 7 8 7 7 6 4 3 4 3 2 1 1 1 0 2 2 3 3 1 1 2 2 2 4 4 3 11 15 13 8 4 3 3 3 2 1 2 2 3 1 1 3 5 7 6 4 2 1 1 2 3 2 2 2 2 4 6 7 6 7 9 11 10 7
6 5 4 3 3 2 3 3 4 6 8 11 14 15 14 12 9 6 3 2 4 6 6 6 6 6 6 7 5 4 5 4 1 1 1 0 1 2 1 2 2 1 1 3 3 3 4 4 8 13 12 7 4 3 3 4 2 0 1 1 1 3 2 3 5 8 8 7 4 3 2 1 1 2 3 3 2 2 5 6 7 7 8 9 11 11 9
4 4 2 3 2 2 2 4 7 11 16 19 21 21 19 17 13 10 4 0 1 2 2 2 3 4 4 4 4 4 4 3 2 2 3 2 1 1 1 1 1 2 2 3 4 4 6 8 13 15 11 7 5 3 4 4 2 1 1 1 2 4 4 5 7 9 10 9 7 6 4 2 2 2 2 3 2 3 5 6 6 7 8 9 10 11 11
4 3 3 4 4 5 8 10 11 13 17 20 20 18 16 14 14 12 7 1 2 2 1 1 1 1 2 3 3 3 3 2 1 1 3 2 1 1 1 1 2 3 2 3 5 6 9 9 13 15 10 8 7 5 4 3 2 2 2 2 4 5 5 6 8 11 12 10 9 8 5 3 3 4 3 2 3 5 5 5 6 7 9 10 10 10 11
5 5 6 6 5 6 9 10 8 8 11 16 18 18 15 12 12 12 9 4 1 2 2 1 1 1 0 1 2 2 2 2 2 1 3 3 2 2 3 3 3 3 3 5 8 10 12 7 10 15 11 8 8 6 2 0 2 4 4 5 5 6 7 7 9 11 13 12 11 10 8 6 5 5 4 5 6 5 4 4 5 7 7 8 9 9 11
4 6 9 11 11 10 10 9 7 7 9 13 17 19 17 13 10 7 6 4 2 1 2 2 2 2 1 1 2 2 2 2 2 2 3 3 2 2 4 4 4 5 7 11 14 15 16 12 8 13 12 10 9 6 2 3 5 6 5 6 5 6 7 8 9 12 13 13 12 12 11 9 8 7 6 6 6 6 5 5 4 5 5 6 7 8 10
6 7 8 11 15 16 15 14 15 15 15 17 18 19 17 14 10 7 4 3 1 2 3 3 2 2 1 1 2 2 2 1 2 3 3 3 3 3 4 5 7 9 12 12 12 12 14 12 7 6 8 8 7 5 4 4 5 5 4 5 5 7 8 9 9 11 13 14 15 14 13 12 12 10 7 5 6 7 9 8 4 3 4 5 7 8 8
Wind_Direction
5 3 4 3 1 360 358 358 356 348 343 344 349 352 351 327 287 281 238 200 193 176 185 276 237 219 246 243 251 259 258 261 263 263 272 281 270 261 254 278 283 284 290 293 315 330 333 322 308 298 98 98 89 49 35 45 48 49 70 57 359 7 76 80 302 288 299 310 314 314 321 331 330 36 91 97 136 141 146 182 203 223 232 151 116 222 272
7 4 4 4 3 2 0 360 1 360 351 344 343 346 342 320 300 285 240 213 206 181 176 251 260 260 248 243 253 261 264 268 264 264 277 283 290 297 288 292 299 326 343 346 342 346 28 350 335 0 75 106 103 100 81 65 53 30 41 54 321 357 70 100 35 340 339 332 332 336 340 354 354 334 39 64 37 47 60 4 55 56 287 118 111 224 263
10 6 5 6 5 4 3 1 2 7 359 344 340 339 334 326 312 298 271 223 209 215 226 228 242 269 268 274 283 275 282 283 274 276 277 276 337 348 312 327 351 347 337 348 344 333 346 11 340 354 7 124 125 132 119 96 89 80 61 61 82 135 138 106 117 157 258 272 307 6 342 350 355 334 1 31 6 28 82 65 57 59 322 39 97 189 259
11 8 6 8 7 5 6 4 3 9 2 347 344 346 338 325 328 334 324 299 225 240 261 277 280 275 282 292 292 284 292 299 302 307 306 17 15 343 311 339 4 351 348 359 353 332 325 345 358 4 8 350 151 135 118 103 100 93 69 62 62 73 83 87 139 180 198 232 261 325 341 336 330 328 339 344 342 31 75 62 91 171 337 347 170 156 165
12 11 8 8 9 7 8 7 7 10 4 352 357 11 0 330 334 18 354 333 341 338 334 344 332 305 315 329 315 320 321 316 320 320 338 40 33 356 325 359 13 346 348 344 334 327 322 349 9 12 15 356 6 95 100 96 92 87 77 83 92 71 12 303 268 247 259 280 299 317 323 309 301 310 319 316 328 10 36 335 237 161 94 318 270 97 110
12 12 10 10 11 10 9 10 12 13 6 359 11 28 22 8 359 13 9 339 320 349 351 345 334 328 336 354 6 356 354 355 358 344 326 30 44 27 342 5 10 357 2 2 340 335 325 359 12 10 21 4 347 47 80 96 107 100 88 105 116 110 201 251 274 289 292 297 303 310 308 300 304 307 303 318 351 0 355 273 233 130 120 221 246 41 71
14 13 12 11 11 12 11 12 15 17 12 14 30 35 26 18 356 347 357 352 302 306 321 321 318 343 2 7 1 358 5 6 355 351 339 358 38 48 25 9 8 8 26 42 28 10 9 14 11 358 5 4 337 8 50 88 107 97 89 72 82 101 172 259 354 338 330 338 330 328 326 311 308 312 313 358 36 16 355 327 302 62 135 211 176 72 296
16 15 14 13 12 13 13 13 16 18 14 25 40 36 20 10 355 338 340 336 319 319 325 322 316 11 22 20 357 350 3 8 347 11 27 1 358 50 52 20 8 18 40 50 38 13 11 16 16 6 3 4 359 11 20 348 359 30 64 35 37 75 142 1 50 30 343 339 327 324 327 317 319 327 328 356 20 2 354 347 348 18 4 359 66 60 317
17 16 16 15 15 15 14 14 17 17 17 30 40 29 15 14 17 349 337 317 322 329 331 351 43 36 16 7 359 353 1 13 18 31 34 31 24 42 50 33 21 33 41 40 20 353 351 345 340 343 346 335 323 326 339 352 5 17 42 42 56 94 117 20 59 45 310 316 327 330 347 355 352 340 332 358 16 359 357 4 15 38 13 14 44 33 295
17 18 17 16 16 17 16 16 18 18 20 32 38 23 13 19 33 6 358 308 302 323 347 35 43 26 356 0 4 2 11 24 31 27 20 23 25 36 51 46 29 39 37 16 349 340 335 324 319 319 317 315 310 309 315 322 332 331 32 63 103 118 107 96 86 86 255 288 337 350 13 11 339 306 310 344 50 55 45 17 29 60 66 56 57 357 295
17 19 19 17 17 18 18 18 19 21 24 31 37 23 11 11 8 359 359 326 326 359 34 41 25 11 6 6 6 6 14 29 37 35 10 12 16 28 49 52 42 57 28 348 336 337 330 317 309 299 285 285 287 289 296 302 300 287 279 112 173 146 126 159 150 137 213 269 18 15 13 326 260 292 344 334 116 95 80 34 23 48 73 102 91 26 4
18 19 19 18 17 17 18 20 20 25 30 32 37 26 10 10 16 6 358 337 358 16 35 31 19 10 359 1 8 5 5 22 40 41 30 11 9 10 28 49 55 27 2 346 336 336 331 322 312 293 274 264 260 262 266 267 272 272 263 207 169 169 172 198 160 142 181 54 46 30 294 237 215 27 13 3 55 93 96 69 35 30 39 59 56 42 30
18 17 17 18 18 16 17 20 22 25 28 27 33 30 12 10 22 23 9 358 10 19 30 19 14 7 353 353 359 359 9 20 27 30 34 33 15 355 355 39 56 3 348 346 336 330 328 325 319 304 287 274 267 263 252 241 244 251 250 239 198 172 174 184 150 135 133 86 94 175 241 288 33 38 18 6 15 40 64 56 29 19 29 53 53 44 38
15 15 15 16 17 17 16 19 23 27 28 25 30 32 18 12 20 24 16 8 5 21 30 24 6 359 352 356 360 2 19 20 7 2 27 45 11 342 348 34 42 2 344 337 327 320 314 320 330 319 304 300 302 281 255 246 239 230 230 230 214 197 188 155 124 120 121 126 184 220 317 346 2 15 9 16 19 11 68 84 30 6 14 30 39 38 36
14 13 14 16 17 17 17 19 23 27 30 30 31 31 24 16 15 21 20 7 310 16 30 29 351 347 353 4 7 3 12 13 353 341 10 31 4 3 25 37 20 0 348 332 313 302 300 5 355 328 314 329 307 277 265 253 236 223 227 227 211 203 187 146 132 161 129 130 217 294 333 296 286 315 352 7 5 349 0 90 55 349 356 12 29 33 23
14 12 13 15 16 17 19 20 23 27 27 26 28 31 28 19 16 26 24 8 330 21 18 10 5 7 8 4 3 359 357 12 2 349 3 13 359 3 19 17 2 355 347 325 298 295 14 66 62 296 274 274 273 276 321 322 300 352 350 0 59 77 109 122 127 140 127 131 163 226 201 222 300 327 344 351 351 348 354 63 56 329 342 8 26 27 18
13 12 12 14 16 18 20 21 25 29 26 23 25 30 31 24 19 29 27 14 24 58 22 12 21 27 18 357 356 0 2 7 18 16 351 355 4 3 358 356 2 10 358 334 294 341 6 215 213 292 257 288 310 334 17 351 341 354 354 13 42 42 36 59 92 135 173 172 178 209 171 80 335 322 339 344 344 353 30 99 24 314 329 2 19 19 17
11 11 11 12 14 16 19 21 24 28 29 29 29 30 33 29 23 33 40 27 29 47 26 18 29 29 16 10 12 9 8 12 22 18 338 348 3 348 339 352 20 16 357 347 310 351 352 309 339 350 295 334 355 18 14 356 355 357 352 7 32 30 27 43 72 144 182 180 167 126 88 27 312 313 342 347 341 2 79 149 272 303 327 360 11 6 6
8 9 9 11 13 14 17 20 22 23 23 28 34 34 32 27 19 25 36 26 17 38 33 25 34 34 25 26 24 18 19 25 24 13 351 353 345 333 336 13 33 12 2 6 359 0 12 3 4 14 357 358 13 79 344 342 339 352 0 24 31 21 19 16 14 47 62 109 120 81 52 246 276 311 347 3 360 23 106 267 299 317 339 356 359 0 9
4 6 7 10 12 13 15 16 19 23 18 18 33 36 29 23 14 17 21 9 355 17 36 32 36 36 31 34 28 22 28 33 25 21 24 315 330 335 348 34 16 0 10 18 357 4 26 357 352 18 0 346 351 158 354 338 339 2 21 49 38 29 33 3 3 27 46 54 69 65 273 259 307 322 350 27 70 188 226 302 321 334 352 2 6 15 17
0 3 6 10 12 13 14 14 15 23 24 16 17 15 11 17 29 23 19 7 349 5 33 39 38 36 45 53 39 29 42 46 28 12 353 334 342 354 36 43 12 7 15 5 351 8 10 342 337 6 0 347 353 6 3 352 342 358 31 63 36 20 26 94 10 35 51 47 43 226 200 81 44 6 341 71 73 13 6 354 348 0 12 11 9 9 6
359 2 5 9 11 12 13 13 13 21 30 32 28 17 14 26 44 33 34 46 46 359 359 16 28 43 68 61 37 37 57 46 29 9 352 352 12 38 50 32 21 21 19 15 15 356 351 340 331 353 354 347 352 349 350 358 350 345 17 63 49 4 15 62 58 48 92 131 124 72 80 70 49 26 20 26 20 21 25 20 16 17 15 8 0 356 352
0 3 6 10 11 11 12 12 15 21 27 34 37 32 28 24 17 25 47 56 40 342 331 0 24 37 55 35 25 55 51 26 20 36 29 11 18 41 46 33 16 8 19 27 18 326 323 314 316 356 354 351 16 4 337 356 30 350 2 78 93 28 32 43 33 10 45 71 62 50 41 34 29 21 17 22 24 21 18 14 10 4 358 354 350 344 339
2 5 8 10 10 10 11 13 15 19 23 33 38 37 32 19 6 12 42 47 30 14 12 40 46 34 22 21 27 43 25 8 13 38 33 23 20 30 36 34 21 11 17 16 357 336 322 300 301 358 1 358 26 40 356 6 36 0 359 53 78 29 37 45 31 20 26 49 51 38 17 6 20 24 18 16 16 11 5 0 355 349 343 341 339 332 325
5 7 9 10 10 9 11 13 15 17 26 44 48 44 39 22 7 11 23 20 10 5 350 39 55 48 43 38 29 26 18 12 26 24 8 8 44 43 27 30 32 20 8 357 349 349 344 321 318 351 14 20 23 25 12 2 341 348 4 347 307 28 45 48 22 18 21 50 29 21 10 8 15 15 11 7 0 353 350 347 342 339 335 331 327 322 319
6 7 8 10 10 8 10 15 19 22 35 61 65 54 45 21 3 11 20 13 0 350 309 348 37 33 28 19 3 4 22 21 28 15 354 354 59 53 30 23 18 9 6 352 341 343 337 310 334 350 32 46 26 359 311 310 312 330 336 308 10 50 52 39 7 14 347 348 19 19 16 9 1 356 353 351 347 342 341 338 332 332 335 333 327 321 319
6 7 7 7 8 8 9 16 24 31 44 61 70 63 51 24 1 9 18 15 19 30 343 337 1 16 36 37 14 5 35 17 13 25 16 6 20 21 18 18 348 332 359 355 343 335 315 304 338 352 145 44 18 341 312 315 320 328 308 332 16 51 61 8 46 41 354 351 19 22 19 334 336 340 338 340 343 343 341 338 334 333 333 331 326 323 318
5 6 5 4 5 6 7 11 23 34 39 39 37 49 54 27 355 3 11 15 37 47 317 310 318 329 11 23 354 345 12 358 15 60 26 356 343 332 333 326 289 271 273 328 324 307 288 293 291 238 61 40 24 339 330 328 330 337 287 349 29 62 103 71 70 104 76 7 4 0 346 310 321 333 334 336 343 347 346 343 338 334 331 326 323 323 321
3 3 3 1 0 2 2 4 10 16 21 23 17 14 36 309 335 355 4 13 40 23 335 325 321 302 263 323 343 354 3 353 37 100 16 342 342 322 304 286 280 297 319 307 289 280 278 289 284 226 113 101 123 309 331 335 339 310 261 58 58 58 55 52 57 68 21 357 347 340 337 330 329 332 332 333 339 342 340 337 332 331 329 323 318 320 321
1 2 2 358 356 357 358 1 4 2 358 6 9 6 349 245 330 348 353 1 20 10 355 344 319 294 275 304 343 352 350 348 2 26 359 345 332 310 311 307 300 324 320 293 287 300 309 311 315 186 151 148 135 130 323 325 317 325 33 49 56 52 42 39 37 18 348 343 341 337 334 329 325 326 327 329 334 337 336 332 329 326 323 319 319 323 325
359 1 2 1 1 359 359 9 26 26 21 21 22 26 42 328 345 350 349 348 356 355 340 294 283 292 283 188 188 336 344 346 349 348 338 319 270 281 314 337 341 300 267 268 301 324 316 317 335 31 154 148 133 173 149 347 308 266 62 57 58 53 38 25 12 0 357 353 342 332 327 324 324 326 328 329 329 330 331 331 329 324 319 318 319 318 315
356 1 5 11 14 14 18 39 53 43 36 34 33 39 32 357 354 355 348 307 325 339 334 300 286 291 238 183 177 163 323 330 326 307 281 278 287 294 306 318 309 286 268 278 301 307 304 311 316 308 215 160 172 200 117 241 255 209 74 58 50 44 31 13 1 2 4 356 344 333 327 332 334 329 327 331 331 330 333 337 336 329 323 323 324 322 319
351 0 8 17 20 24 35 51 51 35 28 20 7 1 1 357 353 348 337 304 311 325 323 296 278 288 291 260 168 140 262 313 322 320 274 230 250 321 316 292 271 253 255 261 224 210 260 268 270 271 223 192 197 158 156 223 236 81 64 49 35 26 15 4 359 352 344 343 347 340 329 333 337 331 328 335 342 340 338 337 335 334 337 343 346 345 343
346 359 9 14 13 15 25 41 45 28 17 6 350 342 342 338 335 334 328 307 313 325 311 279 265 270 294 290 164 95 353 309 312 338 292 201 208 336 338 317 278 238 231 225 187 211 248 249 235 219 196 195 193 163 207 230 82 67 58 37 20 12 3 359 352 339 331 334 338 334 330 332 335 337 342 352 354 346 342 343 348 353 356 358 357 352 348
343 3 15 357 350 350 357 19 17 2 7 356 325 327 329 322 315 320 324 312 314 328 304 290 288 294 310 301 71 36 348 329 326 336 312 271 280 305 305 291 288 218 187 191 218 245 250 239 232 260 249 220 207 198 199 132 77 67 50 30 27 16 3 355 340 328 328 331 333 337 343 345 350 360 6 5 359 353 353 359 4 5 3 2 0 356 353
341 11 8 338 331 327 327 330 331 333 326 293 303 317 323 315 291 285 303 310 300 242 293 306 307 328 345 332 328 342 339 343 342 318 306 301 301 295 268 258 298 170 166 184 230 253 223 181 175 272 277 271 252 151 121 102 86 73 52 36 31 16 358 343 327 320 321 325 333 344 350 356 7 10 4 0 5 7 6 8 8 7 8 7 2 356 356
325 291 328 338 327 320 323 317 262 297 302 302 308 314 309 284 277 280 284 290 274 252 269 293 296 307 313 305 307 337 345 352 345 329 329 344 332 307 263 206 285 134 173 214 256 243 205 183 167 263 273 212 152 127 111 102 94 81 59 35 11 352 336 324 320 320 321 327 338 345 348 358 10 4 356 11 25 13 6 12 13 9 9 10 5 1 3
336 284 320 336 329 325 335 220 296 312 314 312 318 319 276 256 275 267 249 249 255 247 237 230 247 267 274 277 301 338 344 346 342 337 353 16 326 302 264 196 117 62 349 278 308 331 238 185 175 247 249 142 130 127 118 109 101 82 56 25 350 334 326 321 320 320 326 335 339 341 347 2 10 2 9 39 35 10 3 18 21 14 13 12 10 8 9
346 324 319 328 327 329 350 319 319 327 332 321 322 323 279 246 246 235 217 204 205 217 216 216 235 250 252 261 349 5 354 348 334 320 317 343 323 307 351 4 28 72 2 299 346 74 307 277 226 266 275 126 128 130 123 109 93 71 39 2 339 330 328 330 329 331 340 346 339 336 346 359 13 31 48 55 33 1 0 19 26 24 22 19 14 11 9
339 329 309 305 305 299 296 301 310 327 342 324 308 300 261 232 237 247 225 202 199 202 196 197 221 237 235 224 349 327 292 274 279 301 335 335 310 300 21 8 15 72 2 285 198 158 196 283 349 332 272 176 144 133 123 109 95 71 13 339 330 322 314 323 332 337 346 341 328 337 7 51 76 68 47 22 6 10 25 35 39 38 33 28 24 19 13
341 337 321 310 306 299 294 292 287 282 291 295 287 279 264 248 248 252 251 259 265 216 189 188 205 202 177 179 244 288 278 253 295 314 323 307 286 269 9 338 344 14 292 274 269 213 214 226 261 261 215 161 140 131 127 119 108 85 334 326 327 317 316 332 337 324 312 306 324 26 88 105 97 51 356 352 21 48 50 42 37 36 35 33 29 24 20
318 319 325 328 326 324 319 304 263 235 251 277 285 269 257 248 251 250 232 218 230 215 179 180 192 118 139 195 263 284 227 186 298 310 304 282 293 252 233 272 9 80 247 276 309 311 261 209 294 254 180 152 142 142 142 130 111 38 333 333 315 307 327 347 334 320 320 330 116 112 120 138 281 286 290 37 42 46 40 28 20 19 23 22 18 16 17
287 298 318 323 325 331 318 274 224 199 209 335 52 269 265 250 237 242 228 203 188 173 164 168 162 123 193 244 263 271 226 228 258 268 252 273 291 287 255 232 160 252 284 291 294 271 228 222 273 240 179 153 143 142 141 131 99 51 52 67 193 302 351 1 310 326 9 111 127 138 183 247 286 276 149 109 43 19 7 1 1 6 7 5 5 5 7
279 300 310 294 295 327 334 245 191 165 153 198 197 229 259 242 225 233 234 181 159 170 189 183 160 152 183 216 216 224 241 239 232 238 264 278 278 277 236 218 230 263 291 288 264 250 236 244 267 212 153 141 138 139 137 125 93 81 79 80 166 290 5 350 283 313 108 136 152 197 233 256 294 127 138 125 66 21 352 342 347 357 358 353 355 3 8
338 335 327 287 274 319 335 254 214 201 216 219 211 214 234 254 263 248 160 163 175 11 2 10 32 32 356 328 223 210 211 174 152 206 250 279 303 264 256 262 270 280 274 265 262 254 256 271 39 116 130 137 142 146 139 113 89 81 80 89 210 260 288 219 229 205 166 168 193 239 254 276 42 106 133 123 75 38 343 332 341 353 353 348 351 0 11
348 331 318 304 290 266 230 256 268 227 226 237 243 241 240 254 283 349 93 122 52 28 27 21 18 13 353 338 325 262 233 207 172 221 235 192 233 249 243 262 284 291 254 263 254 237 256 266 156 136 142 146 142 128 103 80 66 66 114 159 228 259 262 207 210 202 188 190 218 259 261 66 52 54 52 48 53 23 334 330 343 355 354 354 359 4 12
342 327 314 305 289 240 217 232 251 265 277 282 283 285 288 293 305 327 18 63 47 41 34 15 8 358 331 313 300 272 252 235 201 160 171 217 275 267 248 261 262 220 222 259 250 242 261 233 176 160 158 156 138 109 88 82 75 11 234 196 248 258 234 202 204 201 194 193 204 220 227 202 100 44 16 16 30 354 322 327 347 359 358 1 11 16 19
328 323 311 296 277 215 226 282 295 291 289 290 294 300 309 320 326 324 316 335 70 31 7 5 7 347 311 284 260 254 264 263 234 201 187 179 246 277 269 272 246 216 231 245 227 239 266 239 198 180 174 176 168 127 96 111 135 255 283 263 264 257 236 213 204 200 195 194 201 215 231 219 197 222 318 2 5 324 314 325 347 2 8 15 22 24 24
291 285 269 274 278 269 279 296 307 302 295 299 307 316 326 341 346 340 335 1 131 148 137 84 55 13 332 302 278 261 250 229 190 191 195 191 196 223 219 239 249 246 253 235 226 256 281 254 203 186 183 182 170 141 112 134 186 293 293 261 263 261 242 221 208 204 202 201 206 219 233 230 219 232 255 284 298 304 316 340 360 7 14 20 24 28 30
258 251 241 241 254 278 289 295 296 292 298 309 318 321 326 339 344 338 336 349 94 137 126 125 221 219 287 315 304 284 237 220 224 236 228 217 207 211 230 241 236 225 235 247 259 288 311 291 197 185 186 186 174 157 139 249 307 314 284 253 253 259 248 229 210 205 207 206 205 214 228 229 209 207 226 253 277 303 331 358 7 8 9 11 20 33 38
242 243 238 234 236 252 275 284 280 281 295 304 306 306 312 323 328 318 311 316 321 146 149 183 210 203 186 217 228 248 293 289 250 235 236 229 215 221 238 240 224 223 246 261 271 290 308 301 235 197 191 190 189 190 232 303 317 312 281 250 246 260 257 238 214 207 210 210 206 211 225 228 212 203 223 261 285 303 306 307 332 4 9 7 20 35 38
224 236 248 250 246 249 259 269 273 277 282 285 288 295 305 319 330 328 317 317 301 228 228 237 228 200 188 208 220 244 291 294 241 235 243 237 221 221 234 250 256 255 260 270 279 290 300 302 280 216 199 205 216 239 276 297 308 302 262 234 243 261 260 250 233 217 211 211 212 216 223 225 218 211 215 240 267 277 272 265 276 346 5 15 32 37 28